[[[{"header":{"parameterUnit":"kt","parameterCategory":2,"dx":1,"dy":1,"la1":30.253999710083008,"la2":30.299108505249023,"lo1":-89.0895004272461,"lo2":-89.04439544677734,"nx":28,"ny":28,"refTime":"2022-09-29T21:00:00:Z","depth":"0","parameterNumber":2,"parameterNumberName":"U-component_of_CURRENTS"},"data":[0.3948,0.4004,0.4148,0.4328,0.4444,0.4508,0.4541,0.4492,0.4548,0.4513,0.4535,0.4599,0.4566,0.4141,0.3656,0.353,0.3125,0.3021,0.2959,0.3399,0.3464,0.3526,0.3286,0.2904,0.2903,0.2023,0.2015,0.201,0.406,0.4153,0.4201,0.4373,0.4482,0.4592,0.4702,0.4712,0.4758,0.4873,0.4916,0.4976,0.4936,0.4899,0.4716,0.4405,0.4203,0.4131,0.3766,0.3722,0.451,0.4298,0.4126,0.4126,0.4127,0.4127,0.4127,0.4128,0.4335,0.4275,0.4365,0.4481,0.4586,0.4714,0.4724,0.4879,0.4952,0.5,0.5124,0.5196,0.5295,0.5511,0.5438,0.5123,0.5239,0.4924,0.4872,0.4731,0.4428,0.5247,0.5385,0.5387,0.5389,0.5391,0.5392,0,0.4651,0.4674,0.4616,0.473,0.4792,0.4848,0.4954,0.5001,0.5176,0.5192,0.5257,0.532,0.5501,0.5523,0.5683,0.5716,0.5305,0.5626,0.5282,0.4763,0.4482,0.4257,0.5094,0.5425,0.5428,0.5429,0.5431,0.5432,0.5103,0.5,0.5011,0.5035,0.5008,0.5012,0.5082,0.5214,0.5252,0.5343,0.5326,0.5419,0.5438,0.5617,0.5643,0.5814,0.5509,0.568,0.5516,0.5125,0.4929,0.471,0.4577,0.5459,0.5455,0.5453,0.545,0,0.5326,0.5385,0.5243,0.5243,0.528,0.5189,0.53,0.531,0.5361,0.5335,0.5336,0.5346,0.5433,0.5457,0.5591,0.5569,0.5482,0.5705,0.5494,0.5381,0.5018,0.4898,0.4949,0.4814,0.586,0.5859,0.5859,0,0.5645,0.5545,0.559,0.5479,0.5406,0.544,0.5372,0.5346,0.537,0.5332,0.5306,0.5269,0.5259,0.5307,0.5345,0.5426,0.552,0.5413,0.5329,0.5133,0.5097,0.4735,0.4586,0.5534,0.5531,0.5529,0.5526,0,0.5812,0.5784,0.5664,0.5628,0.5566,0.5512,0.5493,0.54,0.5346,0.5283,0.526,0.5213,0.5117,0.5266,0.5164,0.5091,0.5368,0.5189,0.5203,0.5191,0.5014,0.4969,0.5069,0.5522,0.5522,0.5521,0.5519,0,0.597,0.5924,0.5802,0.5746,0.5716,0.565,0.5506,0.5427,0.5307,0.5215,0.5129,0.4923,0.4908,0.4827,0.4919,0.4786,0.4842,0.4813,0.482,0.4622,0.431,0.4513,0.4826,0.4459,0.4766,0.476,0.4754,0,0.6043,0.5965,0.5965,0.5847,0.5758,0.5671,0.5591,0.5432,0.528,0.5122,0.4941,0.466,0.4515,0.4355,0.4497,0.4232,0.4487,0.426,0.4337,0.4343,0.4285,0.4611,0.4426,0.4733,0.4675,0.4683,0.4689,0,0.6076,0.6039,0.6016,0.5967,0.5838,0.5693,0.5624,0.5393,0.5333,0.5077,0.4941,0.4516,0.4391,0.4172,0.3868,0.4018,0.4338,0.3894,0.389,0.4128,0.464,0.4512,0.4552,0.4237,0.4247,0.4254,0.4626,0,0.6118,0.6062,0.6044,0.5958,0.5826,0.5705,0.5518,0.5372,0.5215,0.4987,0.4688,0.4242,0.3867,0.3776,0.3494,0.3579,0.3538,0.3362,0.3363,0.3552,0.3668,0.372,0.3014,0.3007,0.3001,0.2996,0,0,0.6125,0.6065,0.5957,0.591,0.5784,0.5592,0.5494,0.5291,0.4805,0.4665,0.4552,0.388,0.3559,0.3268,0.3229,0.3025,0.3091,0.3163,0.3385,0.3429,0.3469,0.3596,0.3652,0.2986,0.2984,0.2982,0.298,0,0.6116,0.6062,0.6038,0.5895,0.5692,0.5477,0.5494,0.5106,0.4892,0.4592,0.4176,0.3912,0.3434,0.3132,0.2939,0.2944,0.2946,0.2879,0.3237,0.3331,0.3382,0.3427,0.3564,0.3618,0.2967,0.2967,0.2968,0,0.6105,0.6006,0.5964,0.5736,0.5519,0.5379,0.5127,0.4926,0.4777,0.4291,0.3956,0.3607,0.319,0.2917,0.2807,0.2796,0.2878,0.2713,0.2735,0.2836,0.2929,0.2985,0.3034,0.2427,0.2427,0.2427,0,0,0.6099,0.606,0.579,0.5706,0.5635,0.5265,0.509,0.4858,0.4474,0.4278,0.392,0.357,0.3233,0.3102,0.2743,0.2621,0.2647,0.2666,0.2691,0.2713,0.2825,0.2923,0.2973,0.2427,0.2427,0.2427,0,0,0.6013,0.5807,0.5744,0.5642,0.5388,0.4908,0.4768,0.4584,0.4155,0.4127,0.3689,0.357,0.3284,0.3102,0.3132,0.2849,0.2721,0.2706,0.3029,0.3056,0.308,0.3283,0.2921,0,0,0,0,0,0.5912,0.5889,0.5843,0.5794,0.5337,0.5017,0.4918,0.4495,0.4425,0.4296,0.3878,0.3772,0.2966,0.298,0.2908,0.3018,0.2429,0.2429,0.2428,0.2799,0.2831,0.2858,0,0,0,0,0,0,0.5891,0.5844,0.5838,0.5419,0.5309,0.5013,0.4738,0.4613,0.4419,0.4362,0.3838,0.3755,0.341,0.3006,0.2943,0.3056,0.2942,0.2429,0.2428,0.2428,0.281,0.2836,0.2859,0,0,0,0,0,0.5874,0.5834,0.5265,0.5401,0.5307,0.4778,0.4731,0.4625,0.4418,0.3944,0.3843,0.413,0.3421,0.3342,0.2968,0.3092,0.2984,0.2961,0.2429,0.2428,0.2428,0.2823,0,0,0,0,0,0,0.5859,0.5614,0.5228,0.5174,0.5388,0.4771,0.4679,0.4639,0.4,0.3906,0.4219,0.4183,0.3428,0.3365,0.3307,0.3121,0.3019,0.2995,0.2981,0.2428,0.2428,0.2428,0,0,0,0,0,0,0.5635,0.5575,0.5198,0.5207,0.5148,0.477,0.469,0.4477,0.4003,0.43,0.4254,0.4213,0.3601,0.3382,0.3335,0.3007,0.3045,0.3023,0.3007,0.2998,0.2428,0.2428,0,0,0,0,0,0,0.5597,0.5543,0.5214,0.517,0.5117,0.4448,0.4567,0.4148,0.3936,0.4335,0.3921,0.3914,0.3633,0.357,0.3357,0.3051,0.3018,0.3044,0.3029,0.3018,0.3011,0,0,0,0,0,0,0,0.5565,0.6085,0.5597,0.5139,0.5091,0.4691,0.4671,0.4651,0.3935,0.3929,0.3923,0.3917,0.3172,0.3147,0.3123,0.3086,0,0,0.3046,0.3036,0,0,0,0,0,0,0,0,0.6091,0.6086,0.5596,0.5588,0.558,0.4687,0.4671,0.4655,0.3934,0.3929,0.3924,0.392,0.3165,0.3145,0.3125,0,0,0,0,0,0,0,0,0,0,0,0,0,0,0,0.5595,0.5588,0,0.4685,0.4672,0.4659,0.3933,0.3929,0.3925,0.3921,0.316,0.3143,0.3127,0,0,0,0,0,0,0,0,0,0,0,0,0,0,0,0,0,0,0,0,0,0,0,0,0,0,0,0,0,0,0,0,0,0,0,0,0,0,0,0,0,0,0,0,0,0,0,0,0,0,0,0,0,0,0,0,0,0,0,0,0,0,0,0,0,0,0,0,0]}],[{"header":{"parameterUnit":"kt","parameterCategory":2,"dx":1,"dy":1,"la1":30.253999710083008,"la2":30.299108505249023,"lo1":-89.0895004272461,"lo2":-89.04439544677734,"nx":28,"ny":28,"refTime":"2022-09-29T21:00:00:Z","depth":"0","parameterNumber":3,"parameterNumberName":"V-component_of_CURRENTS"},"data":[-0.2732,-0.2576,-0.2574,-0.2484,-0.2458,-0.2273,-0.2083,-0.1523,-0.0994,-0.0017,0.0648,0.1059,0.1267,0.0784,0.0486,0.0339,0.024,0.0081,0.0029,0.0301,0.0321,0.034,0.0302,0.0145,0.0144,-0.0079,-0.0082,-0.0084,-0.2915,-0.2844,-0.2678,-0.2592,-0.2567,-0.2615,-0.2405,-0.2109,-0.1604,-0.101,-0.0449,0.0298,0.0575,0.0722,0.0632,0.0404,0.034,0.0282,0.0316,0.0327,0.0556,0.0522,0.041,0.041,0.041,0.041,0.041,0.041,-0.3297,-0.3076,-0.2907,-0.2819,-0.2804,-0.2759,-0.2553,-0.2422,-0.2054,-0.1393,-0.1214,-0.043,-0.0045,0.0468,0.0493,0.0459,0.0431,0.0494,0.0422,0.0377,0.0317,0.0182,0.0396,0.0396,0.0396,0.0395,0.0395,0,-0.3712,-0.3581,-0.3321,-0.3223,-0.3141,-0.3014,-0.2908,-0.275,-0.2552,-0.2143,-0.1582,-0.1128,-0.049,0.0093,0.0369,0.0545,0.0591,0.0643,0.0638,0.0635,0.028,0.0251,0.041,0.0766,0.0767,0.0769,0.077,0.077,-0.4224,-0.4023,-0.3711,-0.3644,-0.3509,-0.3303,-0.3236,-0.3094,-0.2888,-0.2328,-0.204,-0.1413,-0.0842,-0.0038,0.0327,0.069,0.0702,0.0693,0.0718,0.0412,0.0317,0.0219,0.0181,0.0789,0.0786,0.0785,0.0783,0,-0.443,-0.4428,-0.409,-0.3848,-0.3831,-0.3574,-0.3412,-0.3195,-0.2932,-0.2408,-0.223,-0.1608,-0.0979,-0.0438,0.032,0.0413,0.0799,0.0853,0.0587,0.0584,0.038,0.0269,0.0503,0.0482,0.0736,0.0732,0.0729,0,-0.472,-0.4557,-0.4421,-0.4229,-0.3971,-0.3895,-0.3543,-0.3334,-0.2943,-0.2535,-0.2151,-0.165,-0.0901,-0.0379,-0.0073,0.0372,0.0624,0.0574,0.0598,0.0597,0.0558,0.0626,0.0522,0.1068,0.1068,0.1068,0.1068,0,-0.4801,-0.4714,-0.4511,-0.4433,-0.4157,-0.4003,-0.3875,-0.3423,-0.3155,-0.257,-0.2298,-0.1515,-0.1045,-0.0592,-0.0103,-0.0142,0.0626,0.0652,0.0524,0.0491,0.0634,0.0595,0.0924,0.1068,0.1068,0.1068,0.1068,0,-0.4916,-0.4802,-0.4637,-0.4375,-0.4324,-0.4202,-0.3757,-0.3575,-0.2982,-0.2738,-0.2166,-0.175,-0.1034,-0.1024,-0.02,-0.0361,-0.0207,0.0064,0.0075,-0.0071,-0.0197,-0.0206,0.0087,0.0051,-0.0037,-0.0043,-0.0049,0,-0.485,-0.4763,-0.4719,-0.4552,-0.4423,-0.4258,-0.4037,-0.3716,-0.3396,-0.2935,-0.2333,-0.1793,-0.1642,-0.1336,-0.0956,-0.0438,-0.0261,-0.0464,-0.0083,-0.0078,-0.035,-0.0057,-0.0031,-0.0009,-0.0128,-0.012,-0.0114,0,-0.478,-0.4666,-0.4659,-0.4535,-0.4416,-0.4303,-0.4123,-0.3769,-0.352,-0.3158,-0.2697,-0.1997,-0.1738,-0.1431,-0.1067,-0.0728,-0.0425,-0.0739,-0.0721,-0.0828,0.0071,-0.0158,-0.0129,-0.0226,-0.0212,-0.0201,-0.0177,0,-0.4607,-0.4554,-0.458,-0.448,-0.4382,-0.4349,-0.4125,-0.3958,-0.3778,-0.3496,-0.2897,-0.2388,-0.1839,-0.1671,-0.1458,-0.092,-0.1063,-0.0931,-0.0995,-0.0758,-0.0807,-0.0758,-0.1352,-0.1352,-0.1353,-0.1353,0,0,-0.4486,-0.4475,-0.4393,-0.4383,-0.4301,-0.4184,-0.4138,-0.3944,-0.3635,-0.3406,-0.3403,-0.2506,-0.222,-0.1547,-0.1411,-0.1319,-0.1273,-0.1418,-0.0907,-0.0859,-0.0813,-0.0844,-0.0796,-0.1354,-0.1354,-0.1354,-0.1354,0,-0.4428,-0.4386,-0.4404,-0.4321,-0.4252,-0.4112,-0.4134,-0.3942,-0.3752,-0.3477,-0.3123,-0.2702,-0.2333,-0.1879,-0.1634,-0.1365,-0.1366,-0.1352,-0.1285,-0.0925,-0.0876,-0.0832,-0.0854,-0.081,-0.1355,-0.1355,-0.1355,0,-0.431,-0.4269,-0.4263,-0.4172,-0.4085,-0.4009,-0.389,-0.3849,-0.37,-0.3402,-0.3094,-0.2776,-0.2374,-0.2002,-0.1854,-0.1897,-0.1462,-0.1609,-0.1601,-0.1576,-0.1204,-0.1149,-0.11,-0.1732,-0.1734,-0.1736,0,0,-0.4256,-0.4248,-0.4133,-0.4154,-0.4127,-0.3953,-0.3885,-0.3774,-0.3537,-0.3406,-0.3142,-0.2826,-0.2458,-0.2305,-0.2012,-0.1777,-0.1685,-0.1664,-0.1646,-0.1633,-0.1601,-0.1229,-0.1176,-0.1744,-0.1745,-0.1745,0,0,-0.4214,-0.4125,-0.4077,-0.409,-0.3981,-0.3776,-0.3736,-0.363,-0.3329,-0.331,-0.2995,-0.2907,-0.2569,-0.2452,-0.2578,-0.2051,-0.2111,-0.2082,-0.2149,-0.2125,-0.2107,-0.2127,-0.249,0,0,0,0,0,-0.4129,-0.4165,-0.4127,-0.4119,-0.3946,-0.3835,-0.3787,-0.3576,-0.3535,-0.3464,-0.3136,-0.3099,-0.2376,-0.2481,-0.2428,-0.2319,-0.1849,-0.1831,-0.1813,-0.1839,-0.1815,-0.1794,0,0,0,0,0,0,-0.4126,-0.4121,-0.4125,-0.3958,-0.3919,-0.383,-0.3672,-0.3608,-0.3531,-0.3497,-0.3147,-0.3087,-0.2856,-0.2504,-0.2457,-0.2355,-0.2505,-0.1842,-0.1826,-0.1812,-0.1831,-0.1811,-0.1794,0,0,0,0,0,-0.4123,-0.4118,-0.3927,-0.3947,-0.3912,-0.3669,-0.3667,-0.3612,-0.3501,-0.3208,-0.3141,-0.3363,-0.2864,-0.2804,-0.2476,-0.2379,-0.2538,-0.252,-0.1832,-0.1819,-0.1808,-0.1821,0,0,0,0,0,0,-0.412,-0.3971,-0.391,-0.3888,-0.3936,-0.366,-0.3618,-0.3617,-0.3205,-0.315,-0.341,-0.3389,-0.2869,-0.2821,-0.2777,-0.2391,-0.2564,-0.2546,-0.2535,-0.1822,-0.1812,-0.1804,0,0,0,0,0,0,-0.3975,-0.3954,-0.3896,-0.3895,-0.3867,-0.3654,-0.3618,-0.3452,-0.3201,-0.3418,-0.3395,-0.3406,-0.2955,-0.2834,-0.2799,-0.2543,-0.2584,-0.2567,-0.2556,-0.2548,-0.1814,-0.1807,0,0,0,0,0,0,-0.396,-0.394,-0.3895,-0.3875,-0.385,-0.3543,-0.3492,-0.3314,-0.3249,-0.3434,-0.324,-0.3235,-0.2975,-0.2931,-0.2815,-0.2576,-0.2551,-0.2584,-0.2572,-0.2564,-0.2559,0,0,0,0,0,0,0,-0.3947,-0.4161,-0.4095,-0.3859,-0.3836,-0.3687,-0.3675,-0.3664,-0.3248,-0.3244,-0.3241,-0.3237,-0.2681,-0.2663,-0.2644,-0.2602,0,0,-0.2586,-0.2577,0,0,0,0,0,0,0,0,-0.416,-0.4161,-0.4095,-0.4093,-0.4091,-0.3685,-0.3676,-0.3667,-0.3248,-0.3244,-0.3241,-0.3238,-0.2676,-0.2661,-0.2646,0,0,0,0,0,0,0,0,0,0,0,0,0,0,0,-0.4095,-0.4093,0,-0.3684,-0.3676,-0.3669,-0.3247,-0.3245,-0.3242,-0.324,-0.2672,-0.266,-0.2647,0,0,0,0,0,0,0,0,0,0,0,0,0,0,0,0,0,0,0,0,0,0,0,0,0,0,0,0,0,0,0,0,0,0,0,0,0,0,0,0,0,0,0,0,0,0,0,0,0,0,0,0,0,0,0,0,0,0,0,0,0,0,0,0,0,0,0,0,0]}]],[[{"header":{"parameterUnit":"kt","parameterCategory":2,"dx":1,"dy":1,"la1":30.253999710083008,"la2":30.299108505249023,"lo1":-89.0895004272461,"lo2":-89.04439544677734,"nx":28,"ny":28,"refTime":"2022-09-29T21:00:00:Z","depth":"2","parameterNumber":2,"parameterNumberName":"U-component_of_CURRENTS"},"data":[0.2136,0.2178,0.2258,0.2373,0.2496,0.2562,0.2566,0.2521,0.2461,0.2275,0.2137,0.2286,0.2302,0.175,0.1764,0.1589,0.1868,0.1559,0.2213,0.2421,0.2478,0.2627,0.2567,0,0,0,0,0,0.2188,0.2204,0.2308,0.2469,0.2492,0.2637,0.2668,0.2653,0.2827,0.2835,0.3003,0.2479,0.2478,0.2488,0.2136,0.2036,0.2145,0.193,0.2047,0.2114,0.2173,0.2087,0.152,0.1517,0.1515,0.1512,0,0,0.2275,0.2245,0.2284,0.2481,0.2554,0.2605,0.2721,0.2823,0.2966,0.3079,0.3257,0.3328,0.3326,0.2991,0.289,0.2707,0.2968,0.2709,0.2739,0.2776,0.2713,0.2465,0.2316,0.2319,0.2322,0.2324,0.2326,0,0.2247,0.2201,0.2261,0.2461,0.2603,0.2647,0.2829,0.2922,0.2989,0.3196,0.3396,0.3639,0.3745,0.3629,0.3409,0.3357,0.3265,0.3086,0.3585,0.322,0.297,0.2852,0.2855,0.2945,0.2952,0.2957,0.296,0.2963,0.204,0.2131,0.2229,0.2287,0.241,0.2626,0.2742,0.2913,0.2971,0.3241,0.3316,0.3613,0.3834,0.3894,0.3786,0.3706,0.3831,0.325,0.33,0.3534,0.3415,0.3394,0.3373,0.3036,0.3026,0.3019,0.3013,0,0.1844,0.1858,0.2013,0.2176,0.2277,0.243,0.2645,0.2764,0.2973,0.32,0.3336,0.3622,0.3805,0.3885,0.4092,0.3913,0.395,0.3861,0.346,0.3325,0.3433,0.3402,0.3625,0.3617,0.3609,0.3603,0.3598,0,0.1532,0.1678,0.1692,0.1888,0.2096,0.2162,0.2467,0.2618,0.2866,0.3032,0.3288,0.3534,0.3801,0.3916,0.3934,0.3885,0.4096,0.3855,0.3757,0.3555,0.3496,0.3912,0.3872,0.4274,0.4275,0.4276,0.4276,0,0.1338,0.1387,0.1547,0.1613,0.181,0.1991,0.2112,0.243,0.2557,0.2967,0.314,0.3498,0.3662,0.385,0.3836,0.3835,0.4051,0.4016,0.3739,0.3703,0.3538,0.3472,0.4277,0.4278,0.4278,0.4278,0.4278,0,0.1115,0.1196,0.1371,0.1536,0.1596,0.1766,0.2123,0.223,0.2603,0.2761,0.3072,0.3204,0.3523,0.3479,0.3732,0.3653,0.3643,0.3669,0.3665,0.3418,0.3135,0.2849,0.3017,0.3375,0.3371,0.3366,0.3362,0,0.104,0.1155,0.1131,0.1338,0.1477,0.1596,0.1773,0.2017,0.2218,0.2504,0.2733,0.2953,0.2916,0.3026,0.3243,0.326,0.3416,0.3298,0.3337,0.3335,0.3071,0.3308,0.308,0.2965,0.3305,0.3311,0.3316,0,0.0989,0.1022,0.1051,0.1161,0.1313,0.1412,0.1605,0.1845,0.2038,0.2248,0.2525,0.2691,0.2779,0.2845,0.2852,0.3071,0.328,0.299,0.2995,0.2922,0.3527,0.3246,0.3254,0.3351,0.3362,0.3372,0.3271,0,0.0976,0.1026,0.1036,0.116,0.1245,0.1326,0.1486,0.1629,0.1769,0.1903,0.2159,0.2221,0.2402,0.2432,0.2403,0.2718,0.258,0.2578,0.2565,0.2776,0.2671,0.2707,0.2232,0.2228,0.2226,0.2223,0,0,0.0987,0.0987,0.1001,0.1058,0.1138,0.1248,0.1342,0.1438,0.1573,0.1692,0.168,0.194,0.1961,0.2185,0.225,0.2205,0.2216,0.2296,0.2625,0.2669,0.2711,0.2629,0.2666,0.2219,0.2218,0.2217,0.2216,0,0.0957,0.0979,0.0982,0.1048,0.1156,0.1218,0.1261,0.1363,0.1449,0.1593,0.1599,0.1732,0.183,0.1925,0.1973,0.2142,0.2132,0.2143,0.2407,0.2593,0.264,0.2683,0.2611,0.2647,0.2209,0.221,0.221,0,0.0984,0.0999,0.0995,0.1051,0.1111,0.1195,0.1198,0.1267,0.1379,0.1351,0.152,0.1537,0.1583,0.1716,0.1783,0.1773,0.2071,0.1956,0.1971,0.207,0.2261,0.2314,0.2361,0.1764,0.1763,0.1762,0,0,0.0994,0.0976,0.105,0.1059,0.1097,0.1175,0.1208,0.1261,0.1311,0.1343,0.1414,0.1492,0.1549,0.1628,0.1654,0.1792,0.182,0.1905,0.1926,0.1943,0.205,0.2245,0.2295,0.1757,0.1757,0.1757,0,0,0.0992,0.1014,0.1078,0.1067,0.1144,0.1175,0.1199,0.1254,0.1314,0.1344,0.1375,0.1391,0.1508,0.1531,0.1466,0.1714,0.1623,0.1636,0.1729,0.1755,0.1775,0.1893,0.1459,0,0,0,0,0,0.1037,0.1007,0.1066,0.1076,0.112,0.1159,0.1168,0.1218,0.126,0.1286,0.1339,0.1354,0.1511,0.1451,0.1465,0.1609,0.1699,0.1709,0.1719,0.1864,0.1891,0.1914,0,0,0,0,0,0,0.1041,0.1048,0.1066,0.1092,0.1105,0.1157,0.117,0.1182,0.1258,0.1266,0.134,0.1353,0.1358,0.1446,0.1458,0.1597,0.1455,0.1703,0.1712,0.1719,0.1873,0.1896,0.1915,0,0,0,0,0,0.1044,0.105,0.1108,0.1093,0.1103,0.1171,0.117,0.1181,0.1248,0.1281,0.1297,0.1296,0.1355,0.1371,0.1453,0.1593,0.1447,0.1452,0.1708,0.1715,0.1722,0.1884,0,0,0,0,0,0,0.1047,0.1048,0.1112,0.1118,0.111,0.1172,0.1181,0.118,0.126,0.1276,0.1232,0.1237,0.1353,0.1366,0.1377,0.1595,0.1441,0.1445,0.1448,0.1714,0.1719,0.1724,0,0,0,0,0,0,0.1046,0.1052,0.1114,0.1132,0.1141,0.1171,0.118,0.1218,0.1262,0.1205,0.1212,0.1234,0.136,0.1362,0.1371,0.1427,0.1436,0.144,0.1443,0.1445,0.1718,0.1722,0,0,0,0,0,0,0.105,0.1055,0.1131,0.1137,0.1144,0.121,0.1209,0.1262,0.1246,0.1201,0.1252,0.1254,0.1356,0.1366,0.1367,0.1417,0.1425,0.1436,0.1439,0.1441,0.1442,0,0,0,0,0,0,0,0.1053,0.1003,0.1086,0.114,0.1147,0.1177,0.1178,0.1178,0.1247,0.1249,0.1251,0.1253,0.1413,0.1417,0.1422,0.141,0,0,0.1436,0.1438,0,0,0,0,0,0,0,0,0.1002,0.1003,0.1086,0.1088,0.109,0.1177,0.1178,0.1178,0.1247,0.1249,0.1251,0.1252,0.1414,0.1417,0.1421,0,0,0,0,0,0,0,0,0,0,0,0,0,0,0,0.1086,0.1088,0,0.1177,0.1178,0.1178,0.1248,0.1249,0.125,0.1252,0.1415,0.1418,0.1421,0,0,0,0,0,0,0,0,0,0,0,0,0,0,0,0,0,0,0,0,0,0,0,0,0,0,0,0,0,0,0,0,0,0,0,0,0,0,0,0,0,0,0,0,0,0,0,0,0,0,0,0,0,0,0,0,0,0,0,0,0,0,0,0,0,0,0,0,0]}],[{"header":{"parameterUnit":"kt","parameterCategory":2,"dx":1,"dy":1,"la1":30.253999710083008,"la2":30.299108505249023,"lo1":-89.0895004272461,"lo2":-89.04439544677734,"nx":28,"ny":28,"refTime":"2022-09-29T21:00:00:Z","depth":"2","parameterNumber":3,"parameterNumberName":"V-component_of_CURRENTS"},"data":[0.0072,0.0323,0.0517,0.0932,0.104,0.1108,0.1205,0.1521,0.174,0.2184,0.2311,0.2657,0.2064,0.1735,0.1344,0.1014,0.1026,0.0956,0.1167,0.1343,0.1361,0.1122,0.1023,0,0,0,0,0,-0.005,0.0116,0.0365,0.0625,0.0875,0.0777,0.0957,0.1174,0.1375,0.1732,0.1961,0.1932,0.1851,0.1587,0.116,0.0888,0.0901,0.079,0.088,0.09,0.0917,0.0834,0.0728,0.0726,0.0724,0.0722,0,0,-0.0245,-0.0024,0.0221,0.0397,0.0526,0.0698,0.0764,0.092,0.1132,0.1468,0.1496,0.167,0.1487,0.1536,0.1328,0.1066,0.1137,0.1051,0.1062,0.1073,0.0997,0.0832,0.0935,0.0935,0.0935,0.0935,0.0935,0,-0.0259,-0.0025,0.0046,0.0213,0.0308,0.0497,0.0528,0.0656,0.0873,0.0954,0.1136,0.1206,0.1289,0.1359,0.1308,0.1305,0.1272,0.1208,0.1318,0.1199,0.1035,0.1025,0.1009,0.1197,0.1198,0.12,0.1201,0.1201,-0.0001,-0.0034,0.0209,0.03,0.0279,0.0312,0.0392,0.0477,0.0646,0.0804,0.0903,0.0987,0.1098,0.1346,0.1321,0.1391,0.1367,0.1258,0.1161,0.1068,0.1061,0.1039,0.1018,0.1218,0.1216,0.1214,0.1213,0,0.0316,0.0302,0.0325,0.0383,0.0347,0.038,0.0496,0.0622,0.0632,0.0762,0.0713,0.0813,0.0989,0.1086,0.1329,0.1289,0.1413,0.1352,0.1226,0.1221,0.1051,0.1026,0.125,0.1247,0.1244,0.1241,0.1239,0,0.0719,0.0615,0.0689,0.0498,0.0563,0.0568,0.0605,0.0602,0.0702,0.0805,0.0703,0.0734,0.0847,0.0997,0.1058,0.118,0.1349,0.1111,0.1126,0.1107,0.1084,0.1187,0.1163,0.1382,0.1382,0.1381,0.138,0,0.0837,0.093,0.0825,0.0808,0.0768,0.0747,0.0743,0.0727,0.0792,0.0682,0.0671,0.0749,0.0739,0.0889,0.0956,0.0914,0.1259,0.1236,0.108,0.1064,0.113,0.1108,0.1379,0.1379,0.1379,0.1378,0.1378,0,0.1046,0.0923,0.0864,0.0819,0.0801,0.0794,0.0713,0.0764,0.0719,0.0634,0.0603,0.0517,0.0626,0.0492,0.0803,0.0731,0.076,0.0829,0.0837,0.0729,0.0665,0.0796,0.0864,0.0844,0.084,0.0836,0.0833,0,0.1003,0.0864,0.0857,0.0842,0.0727,0.0661,0.0698,0.0604,0.0499,0.0434,0.0369,0.0355,0.0296,0.0262,0.039,0.0572,0.0625,0.0494,0.076,0.0766,0.0668,0.0727,0.0718,0.0811,0.0787,0.0792,0.0795,0,0.0868,0.0697,0.0686,0.0611,0.05,0.0415,0.0438,0.0374,0.0348,0.019,0.0197,0.0286,0.0181,0.0263,0.0275,0.0384,0.0535,0.0394,0.0403,0.0474,0.0835,0.0676,0.0691,0.0633,0.064,0.0646,0.0759,0,0.0743,0.0642,0.0621,0.0455,0.0404,0.0379,0.0234,0.0144,-0.0006,-0.0053,-0.0048,-0.0021,0.0058,0.0059,0.0119,0.0291,0.0267,0.0314,0.0364,0.0389,0.0413,0.0442,0.0105,0.0105,0.0105,0.0105,0,0,0.0669,0.0522,0.0285,0.0241,0.0219,0.0006,0.0025,-0.0033,-0.0123,-0.0137,-0.0248,-0.0119,-0.0056,0.015,0.0138,0.0145,0.0208,0.0174,0.0319,0.0342,0.0364,0.0394,0.0421,0.0105,0.0105,0.0105,0.0105,0,0.0592,0.0345,0.0275,0.0204,0.0052,0.0012,-0.0053,-0.0161,-0.0218,-0.0232,-0.0183,-0.0164,-0.0073,0.0051,0.0136,0.0138,0.0239,0.0119,0.0138,0.0312,0.0335,0.0356,0.039,0.0414,0.0105,0.0105,0.0105,0,0.0497,0.0321,0.025,0.0032,-0.0013,-0.0017,-0.0126,-0.0187,-0.0186,-0.0159,-0.0158,-0.0122,0.0007,0.0096,0.0115,0.0116,0.0261,0.018,0.0178,0.0222,0.0406,0.0429,0.0449,0.0213,0.0214,0.0214,0,0,0.0436,0.028,0.0115,0.0011,-0.0044,-0.0109,-0.0128,-0.0178,-0.0181,-0.0186,-0.0166,-0.0116,-0.0,0.0025,0.0118,0.0178,0.0259,0.0197,0.0192,0.0188,0.0228,0.0409,0.0429,0.0217,0.0217,0.0217,0,0,0.0469,0.0217,0.0112,-0.0033,-0.0104,-0.0109,-0.0102,-0.0173,-0.0156,-0.0175,-0.0095,-0.0072,-0.0022,0.0014,0.0034,0.0134,0.0145,0.0145,0.0147,0.0141,0.0136,0.0175,0.014,0,0,0,0,0,0.0306,0.0231,0.0134,0.009,-0.0063,-0.0095,-0.009,-0.0112,-0.0176,-0.0189,-0.0156,-0.0095,0.0044,0.0066,0.0096,0.013,0.025,0.0244,0.0239,0.0255,0.0248,0.0242,0,0,0,0,0,0,0.0288,0.0228,0.0141,0.0102,0.007,-0.0092,-0.0093,-0.0094,-0.0174,-0.0183,-0.0102,-0.0087,0.0017,0.0058,0.0084,0.0114,0.0131,0.0248,0.0243,0.0238,0.0253,0.0247,0.0242,0,0,0,0,0,0.0274,0.0226,-0.0074,0.0113,0.0085,0.0042,-0.0095,-0.0097,-0.0162,-0.0041,-0.0033,-0.0202,0.0019,0.0041,0.0074,0.01,0.0114,0.0123,0.0245,0.0241,0.0237,0.025,0,0,0,0,0,0,0.0264,0.0309,-0.0073,-0.0073,0.0072,0.0054,0.0028,-0.0099,-0.0014,-0.0011,-0.0123,-0.0128,0.0021,0.0038,0.0055,0.0089,0.01,0.011,0.0116,0.0242,0.0239,0.0236,0,0,0,0,0,0,0.0335,0.0306,-0.0072,-0.0124,-0.0129,0.0064,0.004,0.0145,-0.0009,-0.0094,-0.0101,-0.0127,-0.0005,0.0036,0.0049,0.022,0.009,0.0099,0.0105,0.0109,0.0239,0.0237,0,0,0,0,0,0,0.0327,0.0304,-0.0122,-0.0126,-0.013,-0.0113,0.0169,0.002,-0.01,-0.0093,-0.0111,-0.0116,-0.0006,0.0008,0.0046,0.0211,0.0217,0.009,0.0096,0.01,0.0103,0,0,0,0,0,0,0,0.0322,0.042,-0.0099,-0.0128,-0.0131,-0.0078,-0.0075,-0.0073,-0.0101,-0.0106,-0.011,-0.0114,0.0039,0.0049,0.0058,0.0203,0,0,0.0089,0.0093,0,0,0,0,0,0,0,0,0.0436,0.0424,-0.01,-0.0101,-0.0103,-0.0078,-0.0075,-0.0073,-0.0102,-0.0106,-0.0109,-0.0112,0.0041,0.0049,0.0057,0,0,0,0,0,0,0,0,0,0,0,0,0,0,0,-0.01,-0.0101,0,-0.0077,-0.0075,-0.0074,-0.0103,-0.0105,-0.0108,-0.0111,0.0044,0.005,0.0057,0,0,0,0,0,0,0,0,0,0,0,0,0,0,0,0,0,0,0,0,0,0,0,0,0,0,0,0,0,0,0,0,0,0,0,0,0,0,0,0,0,0,0,0,0,0,0,0,0,0,0,0,0,0,0,0,0,0,0,0,0,0,0,0,0,0,0,0,0]}]],[[{"header":{"parameterUnit":"kt","parameterCategory":2,"dx":1,"dy":1,"la1":30.253999710083008,"la2":30.299108505249023,"lo1":-89.0895004272461,"lo2":-89.04439544677734,"nx":28,"ny":28,"refTime":"2022-09-29T21:00:00:Z","depth":"4","parameterNumber":2,"parameterNumberName":"U-component_of_CURRENTS"},"data":[-0.0963,-0.0911,-0.0931,-0.0833,-0.0799,-0.0763,-0.0755,-0.0736,-0.0621,-0.0559,-0.0421,-0.0349,-0.0134,-0.0168,0.0077,0.0099,0.0095,0.0257,0.0258,0.0247,0.0244,0.0242,0.0425,0,0,0,0,0,-0.1052,-0.1002,-0.0978,-0.0923,-0.0915,-0.0914,-0.0872,-0.0885,-0.0838,-0.0606,-0.0551,-0.0352,-0.0132,-0.0094,0.007,-0.002,0.0153,0.0156,0.0141,0.0245,0.0242,0.0422,0,0,0,0,0,0,-0.1146,-0.1114,-0.1142,-0.1104,-0.1065,-0.1015,-0.1016,-0.0906,-0.0791,-0.0584,-0.0556,-0.0344,-0.0231,-0.0061,-0.0035,0.0089,0.0193,0.0195,0.0195,0.0192,0.0326,0.0218,0.0197,0,0,0,0,0,-0.1219,-0.1254,-0.1285,-0.1263,-0.1235,-0.1195,-0.1123,-0.1065,-0.0895,-0.0807,-0.0565,-0.0394,-0.0224,-0.0021,0.0017,0.0091,0.0128,0.009,0.0093,0.0329,0.0241,0.0194,0.0189,0.023,0.0229,0.0229,0.0229,0,-0.1233,-0.1291,-0.1371,-0.1351,-0.1388,-0.1365,-0.1286,-0.1167,-0.1027,-0.0806,-0.0666,-0.0477,-0.0255,-0.0102,0.0037,0.0135,0.0173,0.0079,0.0331,0.0236,0.019,0.0185,0.0181,0.0226,0.0227,0.0227,0.0227,0,-0.1237,-0.131,-0.1377,-0.1453,-0.1456,-0.142,-0.1338,-0.1195,-0.1021,-0.0754,-0.0655,-0.0367,-0.0183,-0.0039,0.0086,0.0163,0.0217,0.0198,0.0047,-0.0006,0.0178,0.0175,0.0222,0.0223,0.0224,0.0225,0.0225,0,-0.1248,-0.131,-0.1412,-0.1467,-0.1444,-0.146,-0.1342,-0.1156,-0.0926,-0.0714,-0.0445,-0.0276,0.0008,0.009,0.0173,0.0256,0.0247,0.035,0.0311,0.0306,0.03,0.0301,0.0293,0.0386,0.0388,0.039,0.0391,0,-0.1254,-0.1316,-0.1396,-0.1422,-0.1441,-0.1408,-0.1358,-0.1118,-0.0954,-0.0621,-0.0487,-0.0158,-0.0016,0.0115,0.0216,0.027,0.0283,0.0331,0.0314,0.0305,0.0308,0.0298,0.0394,0.0394,0.0394,0.0395,0.0396,0,-0.1239,-0.1296,-0.1372,-0.1396,-0.1402,-0.1416,-0.1273,-0.1158,-0.0833,-0.0668,-0.0375,-0.0191,0.0067,0.0107,0.0293,0.0306,0.0306,0.0307,0.0298,0.0353,0.0257,0.0002,0.0083,0.0082,0.0082,0.0081,0.0081,0,-0.1252,-0.1306,-0.1312,-0.1367,-0.1404,-0.1344,-0.1249,-0.1114,-0.0942,-0.0739,-0.0469,-0.0251,-0.012,0.0015,0.0143,0.0236,0.0257,0.0275,0.0204,0.0199,0.0211,0.0312,0.0316,0.0074,0.0075,0.0076,0.0076,0,-0.124,-0.1278,-0.1285,-0.1317,-0.1331,-0.1338,-0.1238,-0.1105,-0.0978,-0.0817,-0.0621,-0.0309,-0.0177,-0.0043,0.0092,0.0169,0.0223,0.0182,0.0184,0.0048,0.0246,0.0288,0.0293,0.0296,0.03,0.0304,0.0072,0,-0.1244,-0.1269,-0.1277,-0.1291,-0.1297,-0.1303,-0.1235,-0.1157,-0.1072,-0.0949,-0.0695,-0.052,-0.0277,-0.0216,-0.0101,0.0096,0.002,0.0057,0.0023,0.0113,-0.0015,-0.0011,-0.0068,-0.0069,-0.007,-0.0071,0,0,-0.1233,-0.1247,-0.1233,-0.1242,-0.125,-0.1216,-0.1233,-0.1141,-0.1047,-0.0939,-0.0931,-0.0573,-0.0464,-0.0201,-0.012,-0.0101,-0.0122,-0.0069,0.0064,0.0079,0.0092,-0.0022,-0.0018,-0.0072,-0.0072,-0.0072,-0.0073,0,-0.1217,-0.1233,-0.124,-0.1232,-0.1216,-0.1184,-0.1197,-0.1138,-0.1064,-0.0957,-0.0844,-0.0689,-0.0507,-0.0352,-0.0242,-0.0126,-0.0137,-0.0082,-0.0008,0.0054,0.007,0.0084,-0.0026,-0.0022,-0.0074,-0.0074,-0.0074,0,-0.1201,-0.1194,-0.1199,-0.1186,-0.1159,-0.1154,-0.1101,-0.1082,-0.1033,-0.0935,-0.0846,-0.0719,-0.0551,-0.0396,-0.0334,-0.0352,-0.0183,-0.0198,-0.0192,-0.016,-0.0096,-0.0078,-0.0061,-0.0272,-0.0273,-0.0274,0,0,-0.1188,-0.1196,-0.117,-0.1181,-0.1178,-0.1119,-0.1093,-0.1059,-0.0981,-0.0944,-0.086,-0.0741,-0.0585,-0.0525,-0.0413,-0.0302,-0.0315,-0.0224,-0.0214,-0.0207,-0.0171,-0.0105,-0.0087,-0.0277,-0.0277,-0.0277,0,0,-0.1168,-0.1151,-0.1154,-0.1164,-0.1136,-0.1052,-0.1037,-0.1005,-0.0916,-0.0909,-0.0798,-0.0769,-0.064,-0.0593,-0.0646,-0.0398,-0.0434,-0.0422,-0.0425,-0.0412,-0.0403,-0.0383,-0.0591,0,0,0,0,0,-0.1148,-0.1161,-0.1166,-0.1164,-0.1108,-0.1066,-0.1049,-0.0984,-0.097,-0.096,-0.0857,-0.0823,-0.0574,-0.062,-0.0594,-0.0507,-0.0318,-0.0311,-0.0304,-0.0281,-0.0268,-0.0258,0,0,0,0,0,0,-0.1148,-0.1149,-0.1164,-0.1094,-0.108,-0.1064,-0.1011,-0.0991,-0.0969,-0.0962,-0.0839,-0.0819,-0.0734,-0.0628,-0.0606,-0.0523,-0.0599,-0.0315,-0.0309,-0.0304,-0.0277,-0.0266,-0.0258,0,0,0,0,0,-0.1147,-0.1147,-0.1095,-0.1089,-0.1077,-0.0998,-0.1011,-0.0994,-0.0968,-0.0851,-0.0829,-0.0929,-0.0736,-0.0712,-0.0615,-0.0534,-0.0613,-0.0605,-0.0311,-0.0307,-0.0302,-0.0272,0,0,0,0,0,0,-0.1146,-0.1095,-0.1088,-0.1079,-0.1099,-0.0996,-0.0984,-0.0997,-0.0855,-0.0836,-0.0934,-0.093,-0.0736,-0.0718,-0.07,-0.0539,-0.0625,-0.0617,-0.0612,-0.0308,-0.0304,-0.03,0,0,0,0,0,0,-0.1095,-0.1089,-0.1083,-0.1099,-0.109,-0.0994,-0.0985,-0.0904,-0.0853,-0.0942,-0.0936,-0.0934,-0.0768,-0.0722,-0.0707,-0.0581,-0.0634,-0.0627,-0.0621,-0.0618,-0.0305,-0.0302,0,0,0,0,0,0,-0.109,-0.1084,-0.11,-0.1094,-0.1086,-0.0968,-0.0916,-0.086,-0.0882,-0.0948,-0.0883,-0.0883,-0.0774,-0.0757,-0.0713,-0.0593,-0.0584,-0.0634,-0.0629,-0.0625,-0.0623,0,0,0,0,0,0,0,-0.1085,-0.116,-0.1157,-0.1089,-0.1082,-0.0996,-0.0992,-0.0988,-0.0882,-0.0883,-0.0883,-0.0883,-0.0678,-0.0669,-0.0661,-0.0603,0,0,-0.0635,-0.0631,0,0,0,0,0,0,0,0,-0.1159,-0.116,-0.1156,-0.1155,-0.1154,-0.0995,-0.0992,-0.0989,-0.0882,-0.0883,-0.0883,-0.0883,-0.0675,-0.0669,-0.0662,0,0,0,0,0,0,0,0,0,0,0,0,0,0,0,-0.1156,-0.1155,0,-0.0995,-0.0992,-0.099,-0.0882,-0.0883,-0.0883,-0.0883,-0.0674,-0.0668,-0.0662,0,0,0,0,0,0,0,0,0,0,0,0,0,0,0,0,0,0,0,0,0,0,0,0,0,0,0,0,0,0,0,0,0,0,0,0,0,0,0,0,0,0,0,0,0,0,0,0,0,0,0,0,0,0,0,0,0,0,0,0,0,0,0,0,0,0,0,0,0]}],[{"header":{"parameterUnit":"kt","parameterCategory":2,"dx":1,"dy":1,"la1":30.253999710083008,"la2":30.299108505249023,"lo1":-89.0895004272461,"lo2":-89.04439544677734,"nx":28,"ny":28,"refTime":"2022-09-29T21:00:00:Z","depth":"4","parameterNumber":3,"parameterNumberName":"V-component_of_CURRENTS"},"data":[0.0891,0.0977,0.1063,0.1281,0.1445,0.1566,0.1577,0.1506,0.1447,0.1391,0.1245,0.122,0.0964,0.106,0.0735,0.0689,0.058,0.0369,0.0367,0.0167,0.0159,0.0152,0.0207,0,0,0,0,0,0.091,0.0988,0.1081,0.125,0.138,0.1505,0.1498,0.1478,0.1443,0.1332,0.1351,0.1151,0.0931,0.0706,0.0681,0.0511,0.0369,0.0469,0.0304,0.0162,0.0153,0.021,0,0,0,0,0,0,0.0926,0.0966,0.1092,0.1257,0.1377,0.1466,0.1474,0.1486,0.1464,0.1357,0.124,0.101,0.0863,0.0649,0.0496,0.0439,0.0401,0.0354,0.0335,0.0325,0.04,0.0564,0.0561,0,0,0,0,0,0.0945,0.101,0.1067,0.127,0.139,0.143,0.1572,0.1554,0.1493,0.1459,0.124,0.1073,0.0849,0.0568,0.0513,0.0336,0.0128,0.0139,0.0133,0.0106,0.0209,0.0259,0.0272,0.0119,0.0118,0.0117,0.0116,0,0.0925,0.1002,0.113,0.1195,0.1294,0.1472,0.1545,0.1548,0.1506,0.1338,0.1241,0.1068,0.0865,0.0572,0.0347,0.0174,0.0165,0.0117,0.0089,0.0196,0.0245,0.0262,0.0278,0.0109,0.011,0.011,0.0111,0,0.0907,0.0951,0.101,0.1154,0.1221,0.1344,0.1434,0.1416,0.1422,0.1311,0.1287,0.0981,0.0768,0.059,0.0322,0.0237,0.0073,0.0076,0.0119,0.0164,0.0253,0.0273,0.0097,0.01,0.0102,0.0104,0.0105,0,0.084,0.0868,0.0996,0.106,0.1158,0.1224,0.1294,0.1241,0.1221,0.1136,0.0989,0.0845,0.0624,0.0465,0.0336,0.0205,0.0118,0.0142,0.0173,0.0157,0.0177,0.0183,0.0208,-0.0034,-0.0033,-0.0033,-0.0033,0,0.0865,0.081,0.0901,0.0911,0.0963,0.1043,0.1098,0.1105,0.1074,0.0962,0.0918,0.0702,0.066,0.048,0.0361,0.0378,0.0123,0.0147,0.0207,0.0221,0.0194,0.0219,-0.0032,-0.0032,-0.0032,-0.0032,-0.0032,0,0.0779,0.0821,0.087,0.088,0.0891,0.0952,0.1031,0.101,0.0936,0.0911,0.0798,0.0766,0.0581,0.0607,0.0366,0.0443,0.0409,0.0344,0.0342,0.0462,0.0591,0.0572,0.042,0.0423,0.0426,0.0428,0.0431,0,0.085,0.0839,0.0823,0.0831,0.0871,0.089,0.0923,0.0927,0.0934,0.0897,0.0796,0.0796,0.0771,0.0785,0.0628,0.0577,0.0472,0.0559,0.0524,0.0524,0.0602,0.0473,0.0515,0.0472,0.0466,0.0463,0.046,0,0.0913,0.0887,0.0886,0.0901,0.0938,0.0959,0.0962,0.0957,0.0942,0.093,0.0889,0.0835,0.0823,0.0821,0.0818,0.0688,0.0544,0.0758,0.0756,0.0718,0.0401,0.0515,0.0503,0.0544,0.0538,0.0534,0.0488,0,0.0965,0.0959,0.094,0.0933,0.097,0.0953,0.0984,0.0991,0.1043,0.1031,0.1002,0.1006,0.1002,0.0985,0.1014,0.0866,0.0945,0.0961,0.0962,0.0872,0.0881,0.0859,0.1162,0.1164,0.1166,0.1168,0,0,0.1039,0.1014,0.1038,0.1005,0.1028,0.1059,0.1051,0.105,0.108,0.1075,0.1131,0.1139,0.1159,0.1075,0.1059,0.111,0.1115,0.1108,0.0955,0.0932,0.091,0.091,0.0886,0.1172,0.1172,0.1173,0.1174,0,0.1042,0.1081,0.1048,0.1046,0.1047,0.1065,0.1062,0.107,0.1088,0.1123,0.1151,0.1129,0.1227,0.118,0.1183,0.1147,0.1168,0.1199,0.1078,0.0977,0.0951,0.0927,0.0922,0.0899,0.1179,0.1178,0.1178,0,0.1081,0.108,0.1075,0.1075,0.1086,0.1073,0.1094,0.1086,0.1084,0.1148,0.1185,0.1216,0.1255,0.1259,0.1271,0.1283,0.1202,0.1273,0.1265,0.1225,0.1121,0.1093,0.1068,0.1376,0.1376,0.1376,0,0,0.1082,0.1073,0.1073,0.1074,0.1075,0.109,0.1092,0.1098,0.1121,0.114,0.1186,0.1232,0.1252,0.1266,0.1308,0.1313,0.1293,0.1291,0.1282,0.1274,0.123,0.1125,0.1099,0.1376,0.1376,0.1376,0,0,0.1073,0.1062,0.1092,0.1086,0.1088,0.1083,0.1088,0.1101,0.1141,0.1158,0.1206,0.1221,0.1248,0.1286,0.1284,0.1284,0.1332,0.1334,0.123,0.122,0.1211,0.1143,0.1305,0,0,0,0,0,0.1068,0.1059,0.1086,0.1087,0.1098,0.1077,0.108,0.11,0.1122,0.1121,0.1177,0.1195,0.1291,0.1291,0.1302,0.1256,0.1378,0.1378,0.1378,0.1249,0.1238,0.1228,0,0,0,0,0,0,0.1068,0.1068,0.1085,0.1079,0.1082,0.1078,0.1104,0.111,0.1122,0.1126,0.1185,0.1196,0.1227,0.1287,0.1297,0.1251,0.1301,0.1378,0.1378,0.1378,0.1245,0.1236,0.1227,0,0,0,0,0,0.1068,0.1068,0.1082,0.108,0.1082,0.1103,0.1105,0.111,0.1128,0.117,0.1181,0.1142,0.1226,0.1238,0.1293,0.1244,0.1294,0.1298,0.1378,0.1378,0.1377,0.1241,0,0,0,0,0,0,0.1068,0.1081,0.1084,0.1085,0.1085,0.1104,0.1108,0.111,0.1173,0.1181,0.113,0.1132,0.1225,0.1235,0.1244,0.1238,0.1289,0.1293,0.1295,0.1378,0.1378,0.1377,0,0,0,0,0,0,0.108,0.1082,0.1084,0.109,0.1092,0.1105,0.1109,0.1144,0.1175,0.1131,0.1134,0.113,0.1223,0.1232,0.1239,0.1293,0.1284,0.1288,0.1291,0.1292,0.1378,0.1377,0,0,0,0,0,0,0.1082,0.1083,0.109,0.1092,0.1094,0.1115,0.114,0.1163,0.1144,0.113,0.1146,0.1147,0.1221,0.1228,0.1236,0.1287,0.1292,0.1285,0.1287,0.1289,0.129,0,0,0,0,0,0,0,0.1082,0.1068,0.107,0.1093,0.1096,0.1096,0.1097,0.1098,0.1144,0.1145,0.1146,0.1147,0.1264,0.1268,0.1272,0.1281,0,0,0.1284,0.1286,0,0,0,0,0,0,0,0,0.1068,0.1068,0.107,0.107,0.107,0.1096,0.1097,0.1098,0.1145,0.1145,0.1146,0.1146,0.1265,0.1268,0.1271,0,0,0,0,0,0,0,0,0,0,0,0,0,0,0,0.107,0.107,0,0.1097,0.1097,0.1098,0.1145,0.1145,0.1146,0.1146,0.1266,0.1269,0.1271,0,0,0,0,0,0,0,0,0,0,0,0,0,0,0,0,0,0,0,0,0,0,0,0,0,0,0,0,0,0,0,0,0,0,0,0,0,0,0,0,0,0,0,0,0,0,0,0,0,0,0,0,0,0,0,0,0,0,0,0,0,0,0,0,0,0,0,0,0]}]]]